Riverton, WY

1:15 AM MST on December 04, 2016 (GMT -0700)
Thermopolis

Weather History for KTBX - November, 2012

Change the Weather History Date:

Friday, November 23, 2012

  Actual Average (KRIW) Record (KRIW)
Temperature  
Mean Temperature 30 °F 26 °F  
Max Temperature 37 °F 38 °F 57 °F (2006)
Min Temperature 23 °F 15 °F -1 °F (2003)
Degree Days  
Heating Degree Days 35 39  
Month to date heating degree days 753  
Since 1 July heating degree days 1633  
Cooling Degree Days 0 0  
Month to date cooling degree days 0  
Year to date cooling degree days 494  
Moisture  
Dew Point 9 °F    
Average Humidity 43    
Maximum Humidity 54    
Minimum Humidity 28    
Precipitation  
Precipitation 0.00 in 0.01 in 0.11 in (2002)
Month to date precipitation 0.39  
Year to date precipitation 9.00  
Snow  
Snow - - - ()
Month to date snowfall  
Since 1 July snowfall  
Since 1 September snowfall  
Snow Depth -    
Sea Level Pressure  
Sea Level Pressure 30.38 in    
Wind  
Wind Speed 14 mph ()    
Max Wind Speed 23 mph    
Max Gust Speed 29 mph    
Visibility 10.0 miles    
Events      
T = Trace of Precipitation, MM = Missing Value Source: Averaged Metar Reports

Daily Weather History Graph

Daily Weather History Graph

Search for Another Location

Airport or City:

Trip Planner

Search our weather history database for the weather conditions in past years. The results will help you decide how hot, cold, wet, or windy it might be!

Date:

Astronomy

Nov. 23, 2012 Rise Set
Actual Time 7:17 AM MST 4:41 PM MST
Civil Twilight 6:45 AM MST 5:12 PM MST
Nautical Twilight 6:10 AM MST 5:48 PM MST
Astronomical Twilight 5:36 AM MST 6:22 PM MST
Moon 2:03 PM MST (11/23) 2:32 AM MST (11/23)
Length of Visible Light 10h 27m
Length of Day
9h 24m
Waxing Gibbous, 80% of the Moon is Illuminated
Nov 23
Waxing Gibbous
Nov 28
Full
Dec 6
Last Quarter
Dec 13
New
Dec 19
First Quarter

Hourly Weather History & Observations

Time (MST) Temp. Windchill Dew Point Humidity Pressure Visibility Wind Dir Wind Speed Gust Speed Precip Events Conditions
12:15 AM 23.0 °F 13.9 °F 8.6 °F 54% 30.48 in 10.0 mi SE 8.1 mph - N/A   Clear
12:35 AM 23.0 °F 13.9 °F 8.6 °F 54% 30.48 in 10.0 mi SE 8.1 mph - N/A   Clear
12:55 AM 23.0 °F 12.4 °F 8.6 °F 54% 30.47 in 10.0 mi SE 10.4 mph - N/A   Clear
1:15 AM 23.0 °F 11.7 °F 8.6 °F 54% 30.47 in 10.0 mi ESE 11.5 mph - N/A   Clear
1:35 AM 23.0 °F 11.7 °F 8.6 °F 54% 30.47 in 10.0 mi SE 11.5 mph - N/A   Clear
1:55 AM 23.0 °F 10.6 °F 8.6 °F 54% 30.47 in 10.0 mi SE 13.8 mph - N/A   Clear
2:35 AM 23.0 °F 8.7 °F 8.6 °F 54% 30.46 in 10.0 mi SE 18.4 mph - N/A   Clear
2:55 AM 23.0 °F 9.2 °F 8.6 °F 54% 30.46 in 10.0 mi SE 17.3 mph - N/A   Clear
3:15 AM 23.0 °F 7.6 °F 8.6 °F 54% 30.44 in 10.0 mi SE 21.9 mph - N/A   Clear
3:35 AM 23.0 °F 7.6 °F 8.6 °F 54% 30.44 in 10.0 mi SE 21.9 mph - N/A   Clear
3:55 AM 23.0 °F 7.2 °F 8.6 °F 54% 30.43 in 10.0 mi SE 23.0 mph - N/A   Clear
4:15 AM 23.0 °F 8.0 °F 8.6 °F 54% 30.42 in 10.0 mi SE 20.7 mph - N/A   Clear
4:35 AM 23.0 °F 8.3 °F 8.6 °F 54% 30.42 in 10.0 mi SE 19.6 mph - N/A   Clear
5:15 AM 23.0 °F 9.6 °F 8.6 °F 54% 30.43 in 10.0 mi SE 16.1 mph - N/A   Clear
5:35 AM 23.0 °F 13.9 °F 6.8 °F 50% 30.44 in 10.0 mi SSE 8.1 mph 18.4 mph N/A   Clear
5:55 AM 24.8 °F 12.4 °F 5.0 °F 43% 30.43 in 10.0 mi South 15.0 mph - N/A   Clear
6:15 AM 24.8 °F 12.4 °F 5.0 °F 43% 30.43 in 10.0 mi SSE 15.0 mph 21.9 mph N/A   Clear
6:35 AM 24.8 °F 11.9 °F 5.0 °F 43% 30.43 in 10.0 mi South 16.1 mph 21.9 mph N/A   Clear
6:55 AM 24.8 °F 11.1 °F 5.0 °F 43% 30.43 in 10.0 mi SSE 18.4 mph - N/A   Clear
7:15 AM 24.8 °F 12.4 °F 5.0 °F 43% 30.43 in 10.0 mi SSE 15.0 mph - N/A   Clear
7:35 AM 24.8 °F 11.9 °F 5.0 °F 43% 30.44 in 10.0 mi SSE 16.1 mph - N/A   Clear
7:55 AM 26.6 °F 14.3 °F 3.2 °F 37% 30.44 in 10.0 mi SSE 16.1 mph - N/A   Clear
8:15 AM 26.6 °F 15.7 °F 5.0 °F 40% 30.43 in 10.0 mi SE 12.7 mph - N/A   Clear
8:35 AM 24.8 °F 12.4 °F 6.8 °F 46% 30.43 in 10.0 mi SE 15.0 mph - N/A   Clear
8:55 AM 24.8 °F 13.4 °F 6.8 °F 46% 30.44 in 10.0 mi SSE 12.7 mph - N/A   Clear
9:15 AM 26.6 °F 15.2 °F 8.6 °F 47% 30.44 in 10.0 mi SSE 13.8 mph - N/A   Clear
9:35 AM 26.6 °F 15.2 °F 8.6 °F 47% 30.45 in 10.0 mi SSE 13.8 mph - N/A   Clear
9:55 AM 26.6 °F 14.7 °F 8.6 °F 47% 30.44 in 10.0 mi SE 15.0 mph - N/A   Clear
10:15 AM 26.6 °F 13.8 °F 8.6 °F 47% 30.43 in 10.0 mi SE 17.3 mph - N/A   Clear
10:35 AM 26.6 °F 13.8 °F 10.4 °F 51% 30.43 in 10.0 mi SE 17.3 mph - N/A   Clear
10:55 AM 26.6 °F 15.7 °F 10.4 °F 51% 30.45 in 10.0 mi SE 12.7 mph - N/A   Clear
11:15 AM 28.4 °F 17.5 °F 8.6 °F 43% 30.43 in 10.0 mi SE 13.8 mph - N/A   Clear
11:35 AM 28.4 °F 16.2 °F 10.4 °F 47% 30.42 in 10.0 mi SE 17.3 mph - N/A   Clear
12:15 PM 28.4 °F 18.5 °F 8.6 °F 43% 30.41 in 10.0 mi SE 11.5 mph 20.7 mph N/A   Clear
12:35 PM 30.2 °F 20.8 °F 8.6 °F 40% 30.40 in 10.0 mi SE 11.5 mph - N/A   Clear
12:55 PM 30.2 °F 21.9 °F 8.6 °F 40% 30.39 in 10.0 mi SSE 9.2 mph - N/A   Clear
1:15 PM 28.4 °F 19.7 °F 8.6 °F 43% 30.38 in 10.0 mi SSE 9.2 mph - N/A   Clear
1:35 PM 28.4 °F 18.0 °F 8.6 °F 43% 30.36 in 10.0 mi SE 12.7 mph - N/A   Clear
1:55 PM 30.2 °F 19.3 °F 8.6 °F 40% 30.35 in 10.0 mi SSE 15.0 mph 19.6 mph N/A   Clear
2:15 PM 30.2 °F 19.8 °F 6.8 °F 37% 30.35 in 10.0 mi SSE 13.8 mph 21.9 mph N/A   Clear
2:35 PM 32.0 °F 22.5 °F 5.0 °F 32% 30.35 in 10.0 mi SSE 12.7 mph 17.3 mph N/A   Clear
2:55 PM 32.0 °F 21.6 °F 5.0 °F 32% 30.34 in 10.0 mi SSE 15.0 mph 20.7 mph N/A   Clear
3:15 PM 32.0 °F 22.5 °F 5.0 °F 32% 30.34 in 10.0 mi SSE 12.7 mph 17.3 mph N/A   Clear
3:35 PM 33.8 °F 23.5 °F 5.0 °F 30% 30.33 in 10.0 mi SSE 16.1 mph 23.0 mph N/A   Clear
3:55 PM 35.6 °F 25.9 °F 5.0 °F 28% 30.33 in 10.0 mi SSE 16.1 mph 24.2 mph N/A   Clear
4:15 PM 35.6 °F 26.2 °F 6.8 °F 30% 30.33 in 10.0 mi SSE 15.0 mph - N/A   Clear
4:35 PM 35.6 °F 24.5 °F 6.8 °F 30% 30.32 in 10.0 mi SSE 20.7 mph 25.3 mph N/A   Clear
4:55 PM 35.6 °F 25.5 °F 8.6 °F 33% 30.32 in 10.0 mi SSE 17.3 mph 25.3 mph N/A   Clear
5:15 PM 35.6 °F 25.9 °F 10.4 °F 35% 30.32 in 10.0 mi SSE 16.1 mph 24.2 mph N/A   Clear
5:35 PM 33.8 °F 24.3 °F 10.4 °F 38% 30.31 in 10.0 mi SSE 13.8 mph 23.0 mph N/A   Clear
5:55 PM 33.8 °F 23.5 °F 10.4 °F 38% 30.32 in 10.0 mi SSE 16.1 mph - N/A   Clear
6:15 PM 35.6 °F 27.1 °F 10.4 °F 35% 30.31 in 10.0 mi SSE 12.7 mph 18.4 mph N/A   Clear
6:35 PM 35.6 °F 27.1 °F 12.2 °F 38% 30.30 in 10.0 mi SSE 12.7 mph 23.0 mph N/A   Clear
7:15 PM 37.4 °F 26.6 °F 12.2 °F 36% 30.29 in 10.0 mi South 21.9 mph 28.8 mph N/A   Clear
7:35 PM 35.6 °F 24.5 °F 12.2 °F 38% 30.29 in 10.0 mi South 20.7 mph 26.5 mph N/A   Clear
7:55 PM 37.4 °F 26.9 °F 14.0 °F 38% 30.28 in 10.0 mi South 20.7 mph 26.5 mph N/A   Clear
8:15 PM 35.6 °F 27.1 °F 12.2 °F 38% 30.29 in 10.0 mi SSE 12.7 mph 21.9 mph N/A   Clear
8:35 PM 37.4 °F 26.4 °F 14.0 °F 38% 30.28 in 10.0 mi South 23.0 mph 28.8 mph N/A   Clear
8:55 PM 37.4 °F 26.6 °F 14.0 °F 38% 30.28 in 10.0 mi South 21.9 mph 26.5 mph N/A   Clear
9:15 PM 35.6 °F 25.2 °F 12.2 °F 38% 30.27 in 10.0 mi South 18.4 mph 25.3 mph N/A   Clear
9:35 PM 35.6 °F 24.2 °F 14.0 °F 41% 30.26 in 10.0 mi South 21.9 mph 26.5 mph N/A   Clear
10:15 PM 35.6 °F 24.5 °F 14.0 °F 41% 30.26 in 10.0 mi South 20.7 mph 27.6 mph N/A   Clear
10:35 PM 35.6 °F 25.2 °F 14.0 °F 41% 30.25 in 10.0 mi South 18.4 mph 27.6 mph N/A   Clear
10:55 PM 35.6 °F 26.6 °F 14.0 °F 41% 30.25 in 10.0 mi SSE 13.8 mph 21.9 mph N/A   Clear
11:15 PM 35.6 °F 24.8 °F 14.0 °F 41% 30.23 in 10.0 mi South 19.6 mph 24.2 mph N/A   Clear
11:35 PM 33.8 °F 23.2 °F 14.0 °F 44% 30.22 in 10.0 mi SSE 17.3 mph 23.0 mph N/A   Clear
11:55 PM 33.8 °F 23.9 °F 14.0 °F 44% 30.22 in 10.0 mi South 15.0 mph 21.9 mph N/A   Clear